www.pogodaiklimat.ru
Время
(UTC), дата
21 24.03
00 25.03
03 25.03
06 25.03
09 25.03
12 25.03
15 25.03
18 25.03
21 25.03
00 26.03
03 26.03
06 26.03
09 26.03
12 26.03
15 26.03
18 26.03
21 26.03
00 27.03
03 27.03
06 27.03
09 27.03
12 27.03
15 27.03
18 27.03
21 27.03
00 28.03
03 28.03
06 28.03
09 28.03
12 28.03
15 28.03
18 28.03
21 28.03
00 29.03
03 29.03
06 29.03
09 29.03
12 29.03
15 29.03
18 29.03
21 29.03
00 30.03
03 30.03
06 30.03
09 30.03
12 30.03
15 30.03
18 30.03
21 30.03
00 31.03
03 31.03
06 31.03
09 31.03
12 31.03
15 31.03
18 31.03
Ветер
(напр.,м/с)
Видим. Явления Облачность Т
(С)
Тd
(С)
f
(%)
Тe
(С)
Тes
(С)
Комфортность P
(гПа)
Po
(гПа)
Тmin
(С)
Tmax
(С)
R
(мм)
R24
(мм)
S
(см)
Ю 8-11
{11}
10 км 10/0
[Ac und]
-3.6 -7.6 74 -12 -12 тепло 1017.2 995.2
Ю 9-12
{14}
10 км 10/0
[Ac und]
-4.1 -9.1 68 -13 -13 тепло 1013.9 992.0
Ю 9-12
{14}
10 км 10/0
[Ac und]
-4.4 -9.5 68 -13 -13 тепло 1010.9 989.0 -5.4 114
ЮЗ 9-15
{16}
8000 м метель {снег} 10/3 300 м
[Sc Ac und]
-2.7 -6.4 76 -11 -11 тепло 1008.4 986.8
ЮЗ 10-15
{17}
7000 м метель {снег} 10/10 1050 м
[Sc]
-3.5 -6.0 83 -13 -13 по сезону 1006.5 984.8
Ю 8-13
{15}
2100 м снег {метель} 10/10 270 м
[Frnb]
-3.7 -4.8 92 -12 -12 по сезону 1005.6 983.9
Ю 8-13
{13}
10 км позёмок {снег} 10/10 700 м
[Sc]
-3.0 -4.7 88 -11 -11 тепло 1003.8 982.3 -2.3 2
Ю 8-10
{13}
10 км позёмок {снег} 10/10 660 м
[Sc]
-3.1 -3.8 95 -12 -12 тепло 1002.4 980.9
Ю 8-10
{13}
2200 м снег {метель} 10/10 400 м
[Sc]
-3.0 -3.7 95 -12 -12 тепло 998.5 977.1
Ю 9-13
{14}
2100 м снег {метель} 10/0 330 м
[As op]
-2.2 -2.8 96 -11 -11 тепло 993.3 972.0
Ю 11-16
{17}
700 м сильная метель ?/? -2.1 -2.4 98 -12 -12 тепло 989.6 968.3 -3.4 3 117
ЮЗ 10-15
{16}
800 м сильная метель ?/? -1.2 -1.6 97 -10 -10 тепло 986.7 965.7
З 13-17
{19}
900 м сильная метель 9/9 240 м
[Cb cap]
-0.9 -1.9 93 -10 -10 тепло 987.4 966.4
З 15-20
{22}
600 м сильная метель ?/? -0.7 -1.3 96 -11 -11 по сезону 990.2 969.1
З 15-20
{22}
400 м сильная метель ?/? -1.7 -2.2 96 -12 -12 по сезону 992.2 970.9 0.0 5
З 12-18
{22}
400 м сильная метель ?/? -2.1 -2.7 96 -12 -12 по сезону 993.7 972.4
З 13-17
{18}
2500 м слаб. ливневой снег {метель} 10/10 400 м
[Cb cap]
-2.4 -3.3 94 -12 -12 тепло 994.8 973.4
СЗ 13-17
{18}
4200 м метель {ливн. осадки} 10/10 360 м
[Sc]
-2.3 -3.2 94 -12 -12 по сезону 996.2 974.8
СЗ 13-17
{19}
1500 м слаб. снег {метель} 10/10 300 м
[Sc]
-2.2 -2.8 96 -12 -12 по сезону 998.5 977.1 -2.6 0.4 128
СЗ 16-21
{22}
300 м сильная метель ?/? -4.3 -4.9 96 -16 -16 по сезону 1002.2 980.6 -4.4
СЗ 14-19
{21}
3600 м метель {снег} 10/10 660 м
[Sc]
-4.5 -6.8 84 -15 -15 по сезону 1005.5 983.8
СЗ 8-12
{21}
10 км позёмок {снег} 10/10 750 м
[Sc]
-3.3 -5.7 83 -12 -12 по сезону 1007.7 986.1
З 5
{12}
10 км {метель} 10/10 960 м
[Sc]
-3.5 -4.9 90 -10 -10 по сезону 1007.8 986.1 -2.2 0.3
З 7
{12}
10 км в посл. час ливневой снег {метель} 10/10 720 м
[Cb cap]
-2.6 -3.9 91 -10 -10 тепло 1005.6 984.0
З 7
{11}
8000 м слаб. снег 10/10 240 м
[Frnb]
-3.5 -4.6 92 -12 -12 по сезону 1004.4 982.7
З 7 3100 м снег 10/10 180 м
[Frnb]
-2.7 -3.4 95 -11 -11 по сезону 1003.1 981.6
З 10-13
{14}
2100 м снег {метель} 10/6 210 м
[Frnb As op]
-1.4 -1.9 96 -10 -10 по сезону 1002.7 981.4 -3.9 2 129
З 8-12
{14}
5000 м метель {снег} 10/10 300 м
[Sc]
-3.2 -4.6 90 -12 -12 по сезону 1004.7 983.1 -3.2
З 7
{12}
10 км {метель} 10/10 240 м
[Cb cap]
-2.5 -3.8 91 -10 -10 по сезону 1004.5 982.9
ЮЗ 6
{12}
10 км {метель} 10/10 330 м
[Cb cap]
-0.5 -2.3 88 -7 -7 тепло 1004.2 982.8
ЮЗ 8-11
{11}
3800 м слаб. ливневой снег 10/10 360 м
[Cb cap]
-1.0 -2.0 93 -9 -9 по сезону 1002.2 980.9 +0.2 0.5
З 8-12
{12}
10 км в посл. час ливневой снег 10/10 570 м
[Cb cap]
-1.2 -1.9 95 -9 -9 тепло 1001.6 980.3
ЮЗ 4
{12}
10 км {ливн. осадки} 10/10 660 м
[Cb cap]
-1.8 -2.9 92 -8 -8 тепло 1000.9 979.4
ЮВ 5 600 м переохл. туман {ливн. осадки} ?/? -5.3 -5.6 98 -13 -13 по сезону 997.9 976.4
ЮВ 9-12
{13}
1100 м сильн. снег {туман} 10/10 120 м
[Frnb]
-1.9 -2.4 96 -11 -11 по сезону 993.3 972.0 -5.3 0.8 130
ЮЗ 8-12
{14}
10 км в посл. час снег {туман} 10/10 240 м
[Cb cap]
+0.8 0.0 94 -7 -7 тепло 990.0 969.1
З 12-16
{19}
3500 м позёмок {ливн. осадки} 10/9 540 м
[Cb cap Ac und]
-1.0 -2.6 89 -10 -10 по сезону 991.2 970.1
ЮЗ 10-14
{19}
1000 м ливневой снег {метель} 10/10 240 м
[Cb cap]
-2.3 -3.8 89 -11 -11 по сезону 992.6 971.3
З 18-24
{24}
100 м сильная метель {ливн. осадки} ?/? -3.4 -3.8 97 -15 -15 по сезону 993.0 971.7 +0.9 5
З 17-22
{24}
100 м сильная метель {ливн. осадки} ?/? -5.0 -5.6 96 -17 -17 по сезону 994.7 973.2
ЮЗ 10-15
{22}
7000 м метель {снег} 10/0
[Ac und]
-7.6 -9.4 87 -18 -18 прохладно 996.6 974.7
ЮЗ 9-13
{15}
10 км позёмок {снег} 10/10 600 м
[Sc]
-7.6 -10.2 82 -17 -17 по сезону 998.1 976.2
ЮЗ 9-13
{14}
5000 м метель {снег} 10/8 400 м
[Sc Ac und]
-8.5 -10.4 86 -18 -18 по сезону 998.2 976.3 -8.5 6 131
ЮЗ 10-14
{15}
2300 м метель {снег} 10/10 420 м
[Sc]
-7.3 -9.0 88 -18 -18 по сезону 1000.4 978.4
ЮЗ 9-12
{15}
1900 м метель {снег} 10/8 300 м
[Sc Ac und]
-5.9 -7.8 86 -15 -15 по сезону 1002.2 980.4
ЮЗ 8-13
{15}
10 км позёмок {снег} 6/4 500 м
[Sc Ac trans]
-5.7 -7.9 84 -15 -15 по сезону 1003.9 982.1
ЮЗ 5
{13}
8000 м слаб. снег {метель} 10/10 300 м
[Sc]
-8.3 -10.6 83 -16 -16 по сезону 1004.9 982.8 -5.7 2
ЮЗ 8-11
{13}
800 м сильн. снег {метель} ?/? -6.7 -7.9 91 -16 -16 по сезону 1004.7 982.8
ЮЗ 9-13
{17}
2800 м снег {метель} 10/10 420 м
[Sc]
-7.4 -8.3 93 -17 -17 по сезону 1005.2 983.1
ЮЗ 7
{17}
10 км {снег, метель} 10/10 660 м
[Sc]
-10.3 -12.3 85 -20 -20 по сезону 1006.4 984.2
ЮЗ 8-12
{13}
10 км позёмок 10/10 420 м
[Sc]
-10.1 -11.4 90 -20 -20 по сезону 1006.7 984.5 -10.5 2 131
ЮЗ 9-12
{13}
4200 м метель {снег} 10/10 300 м
[Cb cap]
-10.2 -11.5 90 -20 -20 по сезону 1006.9 984.7 -10.5
ЮЗ 9-13
{13}
1800 м метель {ливн. осадки} 10/10 300 м
[Cb cap]
-9.0 -10.6 88 -19 -19 по сезону 1007.6 985.5
ЮЗ 8-12
{13}
10 км позёмок {ливн. осадки} 10/10 500 м
[Cb cap]
-6.9 -9.0 85 -16 -16 по сезону 1007.9 985.9
ЮЗ 8
{12}
10 км в посл. час ливневой снег {метель} 10/10 330 м
[Cb cap]
-7.3 -9.0 88 -17 -17 по сезону 1008.2 986.1 -6.7 2
ЮЗ 3
{12}
10 км {ливн. осадки, метель} 8/0
[Ac trans]
-11.1 -13.1 85 -17 -17 по сезону 1009.0 986.8
Местоположение метеостанции Воркута (Коми, Россия): широта 67.48 долгота 63.97 высота над уровнем моря 172 м.
В архиве по умолчанию представлена погода в Воркуте за последнюю неделю. Архивные данные за месяц целиком и за предыдущие месяцы, начиная с января 2011 года, Вы можете получить, выбрав интересующий диапазон дат из раскрывающегося списка и нажав кнопку "Найти!".
*Определитесь, кто Вы:
Внимание! Время в таблицах - всемирное. Для получения местного времени необходимо прибавить поправку, которая равна 3 ч.
Смотрите также архив погоды в соседних городах и на ближайших метеорологических станциях:
Партнеры нашего сайта:      
Пояснения к столбцам:
  • Ветер - указаны скорость ветра в м/с - средняя за 10 мин, порывы в срок и между сроками (в фигурных скобках) и направление, откуда дует ветер: С - северный,
  • СВ - северо-восточный, В - восточный, ЮВ - юго-восточный, Ю - южный, ЮЗ - юго-западный, З - западный, СЗ - северо-западный.
  • Видимость - горизонтальная дальность видимости в метрах или километрах. При видимости от 1 до 10 км при отсутствии осадков обычно наблюдается дымка, при ухудшении видимости до 1 км и менее - туман. В сухую погоду видимость может ухудшаться дымом, пылью или мглою.
  • Явления - указаны атмосферные явления, наблюдавшиеся в срок или в последний час перед сроком; фигурными скобками обозначены явления, наблюдавшиеся между сроками (за 1-3 часа до срока); квадратными скобками обозначены град или гололедные отложения с указанием их диаметра в мм.
  • Облачность - указаны через наклонную черту общая и нижняя облачность в баллах и высота нижней границы облаков в метрах; квадратными скобками обозначены формы облаков: Ci - перистые, Cs - перисто-слоистые, Cc - перисто-кучевые, Ac - высококучевые, As - высокослоистые, Sc - слоисто-кучевые, Ns - слоисто-дождевые, Cu - кучевые, Cb - кучево-дождевые. Подробнее классификацию облаков см. в Атласе облаков (PDF).
  • T - Температура воздуха - температура, измеренная на высоте 2 м над землей.
  • Td - Температура точки росы - температура, при понижении до которой содержащийся в воздухе водяной пар достигнет насыщения.
  • f - Относительная влажность воздуха - влажноcть воздуха, измеренная на высоте 2 м над землей.
  • Te - Эффективная температура - температура, которую ощущает одетый по сезону человек в тени. Характеристика душности погоды. При расчете учитывается влияние влажности воздуха и скорости ветра на теплоощущения человека.
  • Tes - Эффективная температура на солнце - температура, которую ощущает человек, с поправкой на солнечный нагрев. Характеристика знойности погоды. Зависит от высоты солнца над горизонтом, облачности и скорости ветра. Ночью, в пасмурную погоду, а также при ветре 12 м/с и более поправка равна нулю.
  • P - Атмосферное давление - приведенное к уровню моря атмосферное давление.
  • Po - Атмосферное давление - измеренное на уровне метеостанции атмосферное давление.
  • Tmin - Минимальная температура - минимум температуры воздуха на высоте 2 м над землей.
  • Tmax - Максимальная температура - максимум температуры воздуха на высоте 2 м над землей.
  • R - Количество осадков - Количество выпавших осадков за период времени, мм. При наведении курсора мыши на число - период времени, за который выпало указанное количество осадков.
  • R24 - Количество осадков - Количество выпавших осадков за 24 часа, мм.
  • S - Снежный покров - Высота снежного покрова, см. При наведении курсора мыши на число - состояние снежного покрова и степень покрытия местности в баллах.